Other Public Products
Issued by NWS Charleston, SC

Current Version | Previous Version | Graphics & Text | Print | Product List | Glossary On
Versions: 1 2 3 4 5 6 7 8 9 10 11 12 13 14 15 16 17 18 19 20 21 22 23 24 25 26 27 28 29 30 31 32 33 34 35 36 37 38 39 40 41 42 43 44 45 46 47 48 49 50
768
FPUS82 KCHS 231227
OPUCHS

TEST...KCHS/KSAV Gateway Observations...TEST
National Weather Service Charleston SC
800 AM EDT SUN JUL 23 2017

NOTE: "fair" indicates few or no clouds below 12,000 feet with no
significant weather and/or obstructions to visibility.

SCZ050-WAZ558-NCZ071-TXZ119-213-PAZ071-DCZ001-FLZ074-172-MI076-
NYZ176-178-MAZ016-IL014-TNZ027-NJZ106-GAZ044-MD014-231300-

...Gateway Observations for Charleston International...

CITY           SKY/WX    TMP DP  RH WIND       PRES   REMARKS
Chas Airport   MOSUNNY   79  74  84 SW8       29.98R
6HR MIN TEMP:  77; 6HR MAX TEMP:  79;

Seattle        MOCLDY    63  57  81 NE13      30.09R
6HR MIN TEMP:  63; 6HR MAX TEMP:  68;

Charlotte      MOSUNNY   80  73  79 SW6       29.92R
6HR MIN TEMP:  78; 6HR MAX TEMP:  81;

Dallas DFW     MOCLDY    81  73  76 S12       29.88R
6HR MIN TEMP:  80; 6HR MAX TEMP:  87;

Dallas Love    PTCLDY    81  72  74 S8        29.89R
6HR MIN TEMP:  81; 6HR MAX TEMP:  87;

Philladelphia  CLOUDY    79  71  76 NW7       29.78R
6HR MIN TEMP:  77; 6HR MAX TEMP:  80;

Wash National  CLOUDY    77  75  93 CALM      29.80R
6HR MIN TEMP:  75; 6HR MAX TEMP:  77; 6HR PCP: TRACE;

Baltimore      PTSUNNY   76  75  97 W7        29.78R
6HR MIN TEMP:  72; 6HR MAX TEMP:  76;

Miami          PTSUNNY   84  76  76 CALM      30.05R HX  93
6HR MIN TEMP:  82; 6HR MAX TEMP:  84;

Detroit        CLOUDY    71  66  84 W7        29.80S
6HR MIN TEMP:  70; 6HR MAX TEMP:  72;

Newark         CLOUDY    72  69  90 CALM      29.77R
6HR MIN TEMP:  70; 6HR MAX TEMP:  72; 6HR PCP:  0.04;

Laguardia      PTSUNNY   74  70  87 S3        29.76R
6HR MIN TEMP:  72; 6HR MAX TEMP:  75; 6HR PCP:  0.02;

J F K          CLOUDY    72  70  93 SE6       29.78R
6HR MIN TEMP:  71; 6HR MAX TEMP:  73; 6HR PCP:  0.04;

Boston Logan   MOSUNNY   69  55  60 NE15      29.84R
6HR MIN TEMP:  67; 6HR MAX TEMP:  76;

Ft. Lauderdale PTSUNNY   83  75  77 SE5       30.04R HX  90
6HR MIN TEMP:  81; 6HR MAX TEMP:  84;

Chicago O`Hare CLOUDY    74  70  87 CALM      29.81R
6HR MIN TEMP:  71; 6HR MAX TEMP:  74;

Chicago Midway CLOUDY    75  71  87 W3        29.80S
6HR MIN TEMP:  73; 6HR MAX TEMP:  76;

Houston Bush   CLOUDY    79  76  90 CALM      29.93R
6HR MIN TEMP:  78; 6HR MAX TEMP:  80;

Houston Hobby  CLOUDY    81  75  82 S3        29.92R
6HR MIN TEMP:  79; 6HR MAX TEMP:  83;

Nashville      MOSUNNY   80  71  74 CALM      29.91R
6HR MIN TEMP:  79; 6HR MAX TEMP:  83;

Atlanta        SUNNY     76  73  91 W5        30.00R
6HR MIN TEMP:  75; 6HR MAX TEMP:  76;


$$

GAZ044-118-TXZ119-213-NCZ071-DCZ001-MDZ014-506-PAZ021-071-NJZ106-
NYZ176-178-MAZ106-OHZ011-021-055-MIZ076-KYZ091-ILZ014-INZ047-
MNZ060-ONZ431-231300-

...Gateway Observations for Savannah International...

CITY           SKY/WX    TMP DP  RH WIND       PRES   REMARKS
Savannah Arpt  PTSUNNY   78  75  90 SW10      30.01R
Atlanta        SUNNY     76  73  91 W5        30.00R
6HR MIN TEMP:  75; 6HR MAX TEMP:  76;

Charlotte      MOSUNNY   80  73  79 SW6       29.92R
6HR MIN TEMP:  78; 6HR MAX TEMP:  81;

Dallas DFW     MOCLDY    81  73  76 S12       29.88R
6HR MIN TEMP:  80; 6HR MAX TEMP:  87;

Houston Bush   CLOUDY    79  76  90 CALM      29.93R
6HR MIN TEMP:  78; 6HR MAX TEMP:  80;

Wash National  CLOUDY    77  75  93 CALM      29.80R
6HR MIN TEMP:  75; 6HR MAX TEMP:  77; 6HR PCP: TRACE;

Wash Dulles    PTSUNNY   75  73  93 CALM      29.80R
6HR MIN TEMP:  72; 6HR MAX TEMP:  75;

Baltimore      PTSUNNY   76  75  97 W7        29.78R
6HR MIN TEMP:  72; 6HR MAX TEMP:  76;

Philadelphia   CLOUDY    79  71  76 NW7       29.78R
6HR MIN TEMP:  77; 6HR MAX TEMP:  80;

Newark         CLOUDY    72  69  90 CALM      29.77R
6HR MIN TEMP:  70; 6HR MAX TEMP:  72; 6HR PCP:  0.04;

Laguardia      PTSUNNY   74  70  87 S3        29.76R
6HR MIN TEMP:  72; 6HR MAX TEMP:  75; 6HR PCP:  0.02;

J F K          CLOUDY    72  70  93 SE6       29.78R
6HR MIN TEMP:  71; 6HR MAX TEMP:  73; 6HR PCP:  0.04;

Boston         MOSUNNY   69  55  60 NE15      29.84R
6HR MIN TEMP:  67; 6HR MAX TEMP:  76;

Pittsburg      CLOUDY    74  72  93 SW6       29.82S FOG
6HR MIN TEMP:  73; 6HR MAX TEMP:  74;

Akron          CLOUDY    73  70  90 SW7       29.82R
6HR MIN TEMP:  70; 6HR MAX TEMP:  73;

Cleveland      PTSUNNY   75  72  90 SW5       29.81R
6HR MIN TEMP:  73; 6HR MAX TEMP:  76;

Cincinnati     CLOUDY    72  71  97 SW9       29.84S
6HR MIN TEMP:  71; 6HR MAX TEMP:  73; 6HR PCP:  0.08;

Columbus       CLOUDY    72  71  98 SW9       29.84R
Detroit        CLOUDY    71  66  84 W7        29.80S
6HR MIN TEMP:  70; 6HR MAX TEMP:  72;

Chicago O`Hare CLOUDY    74  70  87 CALM      29.81R
6HR MIN TEMP:  71; 6HR MAX TEMP:  74;

Minneapolis    MOSUNNY   69  56  62 NW12      29.88R
6HR MIN TEMP:  69; 6HR MAX TEMP:  73;

Indianapolis   CLOUDY    72  69  90 W6        29.83R
6HR MIN TEMP:  71; 6HR MAX TEMP:  76; 6HR PCP:  0.02;

Toronto Canada PTSUNNY   70  66  88 NE6       29.78S

$$




USA.gov is the U.S. government's official web portal to all federal, state and local government web resources and services.